User: anonymous   Login
Location: Unspecified
(0.0000°N, 0.0000°E)
Time: 12:30:10
(UTC+02:00)
Language:

CZ-4 R/B - Orbit

View from above orbital plane
View from above orbital plane
View from above satellite
View from above satellite

Ground track
Ground track

The orbit data is extracted from the following two-line orbital elements,

1 28059U 03049C   17147.77535425 +.00000010 +00000-0 +14403-4 0  9995
2 28059 098.5642 033.3108 0049298 310.6214 090.6383 14.52487744720720
Epoch (UTC): 27 May 2017 18:36:30
Eccentricity: 0.0049298
inclination: 98.5642°
perigee height: 682 km
apogee height: 752 km
right ascension of ascending node: 33.3108°
argument of perigee: 310.6214°
revolutions per day: 14.52487744
mean anomaly at epoch: 90.6383°
orbit number at epoch: 72072

The dashed part of the orbit path shows where the satellite is in the earth's shadow,  

DLR